Weather History for LEPA - September, 2014

Change the Weather History Date:

Monday, September 8, 2014

  Actual Average Record
Temperature  
Mean Temperature 79 °F -  
Max Temperature 90 °F 77 °F 90 °F (2014)
Min Temperature 68 °F 59 °F 59 °F (2007)
Cooling Degree Days 14    
Growing Degree Days 29 (Base 50)    
Moisture  
Dew Point 71 °F    
Average Humidity 77    
Maximum Humidity 94    
Minimum Humidity 41    
Precipitation  
Precipitation 0.00 in 0.07 in - ()
Sea Level Pressure  
Sea Level Pressure 29.95 in    
Wind  
Wind Speed 3 mph ()    
Max Wind Speed 18 mph    
Max Gust Speed -    
Visibility 6.7 miles    
Events      
Averages and records for this station are not official NWS values.
T = Trace of Precipitation, MM = Missing Value Source: Averaged Metar Reports

Daily Weather History Graph

Daily Weather History Graph

Search for Another Location

Airport or City:

Trip Planner

Search our weather history database for the weather conditions in past years. The results will help you decide how hot, cold, wet, or windy it might be!

Date:

Astronomy

Sep. 08, 2014 Rise Set
Actual Time 7:23 AM CEST 8:09 PM CEST
Civil Twilight 6:56 AM CEST 8:36 PM CEST
Nautical Twilight 6:23 AM CEST 9:08 PM CEST
Astronomical Twilight 5:50 AM CEST 9:41 PM CEST
Moon 7:39 PM CEST (9/8) 6:29 AM CEST (9/8)
Length of Visible Light 13h 40m
Length of Day
12h 45m
Waxing Gibbous, 99% of the Moon is Illuminated
Sep 8
Waxing Gibbous
Sep 9
Full
Sep 16
Last Quarter
Sep 24
New
Oct 1
First Quarter

Hourly Weather History & Observations

Time (CEST) Temp. Heat Index Dew Point Humidity Pressure Visibility Wind Dir Wind Speed Gust Speed Precip Events Conditions
12:00 AM 74 °F - 71 °F 86% 29.95 in - Calm Calm - -  
12:30 AM 75.2 °F - 69.8 °F 83% 29.92 in 6.2 mi Calm Calm - N/A   Scattered Clouds
1:00 AM 72 °F - 69 °F 86% 29.92 in - NNE 2.3 mph - -  
1:00 AM 71.6 °F - 68.0 °F 88% 29.92 in 6.2 mi Calm Calm - N/A   Scattered Clouds
1:30 AM 71.6 °F - 68.0 °F 88% 29.92 in 6.2 mi Calm Calm - N/A   Scattered Clouds
2:00 AM 71 °F - 69 °F 92% 29.93 in 6 mi North 3.5 mph - -  
2:00 AM 71.6 °F - 68.0 °F 88% 29.92 in 5.6 mi Variable 2.3 mph - N/A   Scattered Clouds
2:30 AM 71.6 °F - 68.0 °F 88% 29.92 in 5.6 mi ENE 1.2 mph - N/A   Partly Cloudy
3:00 AM 71 °F - 69 °F 92% 29.93 in - Calm Calm - -  
3:00 AM 71.6 °F - 69.8 °F 94% 29.92 in 5.6 mi Calm Calm - N/A   Partly Cloudy
3:30 AM 71.6 °F - 68.0 °F 88% 29.92 in 5.6 mi Variable 2.3 mph - N/A   Partly Cloudy
4:00 AM 70 °F - 69 °F 94% 29.92 in - East 2.3 mph - -  
4:30 AM 69.8 °F - 68.0 °F 94% 29.92 in 5.6 mi ENE 2.3 mph - N/A   Partly Cloudy
5:00 AM 70 °F - 68 °F 93% 29.91 in - NE 2.3 mph - -  
5:00 AM 69.8 °F - 68.0 °F 94% 29.89 in 5.6 mi NE 4.6 mph - N/A   Partly Cloudy
5:30 AM 69.8 °F - 68.0 °F 94% 29.92 in 5.6 mi Calm Calm - N/A   Partly Cloudy
6:00 AM 69 °F - 67 °F 91% 29.92 in - North 2.3 mph - -  
6:00 AM 69.8 °F - 66.2 °F 88% 29.92 in 5.6 mi North 3.5 mph - N/A   Partly Cloudy
6:30 AM 68.0 °F - 66.2 °F 94% 29.92 in 5.6 mi Variable 2.3 mph - N/A   Partly Cloudy
7:00 AM 69 °F - 66 °F 87% 29.92 in - Calm Calm - -  
7:00 AM 69.8 °F - 66.2 °F 88% 29.92 in 6.2 mi Calm Calm - N/A   Partly Cloudy
7:30 AM 69.8 °F - 66.2 °F 88% 29.92 in 6.2 mi Calm Calm - N/A   Partly Cloudy
8:00 AM 69 °F - 67 °F 92% 29.95 in 4 mi NNW 2.3 mph - -   Mist
8:00 AM 69.8 °F - 66.2 °F 88% 29.95 in 6.2 mi Calm Calm - N/A   Partly Cloudy
8:30 AM 71.6 °F - 69.8 °F 94% 29.95 in 6.2 mi Variable 1.2 mph - N/A   Partly Cloudy
9:00 AM 76 °F - 71 °F 78% 29.96 in - NNE 1.2 mph - -  
9:00 AM 75.2 °F - 69.8 °F 83% 29.95 in 6.2 mi Variable 2.3 mph - N/A   Partly Cloudy
9:30 AM 78.8 °F - 71.6 °F 78% 29.95 in 6.2 mi Variable 1.2 mph - N/A   Partly Cloudy
10:00 AM 81 °F - 71 °F 65% 29.96 in - NNE 1.2 mph - -  
10:00 AM 80.6 °F 83.9 °F 69.8 °F 70% 29.95 in 6.2 mi NNE 1.2 mph - N/A   Partly Cloudy
10:30 AM 82.4 °F 87.2 °F 71.6 °F 70% 29.95 in 6.2 mi Calm Calm - N/A   Partly Cloudy
11:00 AM 83 °F - 72 °F 61% 29.97 in 12 mi SSW 4.6 mph - -   Scattered Clouds
11:00 AM 82.4 °F 87.2 °F 71.6 °F 70% 29.98 in 6.2 mi Variable 2.3 mph - N/A   Partly Cloudy
11:30 AM 84.2 °F 89.6 °F 71.6 °F 66% 29.98 in 6.2 mi SSW 4.6 mph - N/A   Partly Cloudy
12:00 PM 85 °F - 71 °F 55% 29.97 in - SSW 6.9 mph - -  
12:00 PM 82.4 °F 86.3 °F 69.8 °F 66% 29.98 in 6.2 mi SW 5.8 mph - N/A   Partly Cloudy
12:30 PM 84.2 °F 88.4 °F 69.8 °F 62% 29.98 in 6.2 mi WSW 6.9 mph - N/A   Partly Cloudy
1:00 PM 87 °F - 71 °F 49% 29.97 in - SW 6.9 mph - -  
1:30 PM 86.0 °F 91.8 °F 71.6 °F 62% 29.95 in 6.2 mi WSW 4.6 mph - N/A   Partly Cloudy
2:00 PM 90 °F - 69 °F 41% 29.96 in 16 mi SSW 6.9 mph - -   Scattered Clouds
2:00 PM 87.8 °F 92.6 °F 69.8 °F 55% 29.95 in 6.2 mi WSW 3.5 mph - N/A   Partly Cloudy
2:30 PM 87.8 °F 92.6 °F 69.8 °F 55% 29.95 in 6.2 mi SW 6.9 mph - N/A   Partly Cloudy
3:00 PM 89 °F - 69 °F 43% 29.96 in - SW 11.5 mph - -  
3:00 PM 87.8 °F 92.6 °F 69.8 °F 55% 29.95 in 6.2 mi SW 8.1 mph - N/A   Partly Cloudy
3:30 PM 86.0 °F 90.4 °F 69.8 °F 58% 29.95 in 6.2 mi SSW 12.7 mph - N/A   Partly Cloudy
4:00 PM 87 °F - 73 °F 55% 29.96 in - SSW 18.4 mph - -  
4:00 PM 84.2 °F 89.6 °F 71.6 °F 66% 29.95 in 6.2 mi SSW 16.1 mph - N/A   Partly Cloudy
4:30 PM 84.2 °F 90.9 °F 73.4 °F 70% 29.95 in 6.2 mi SW 15.0 mph - N/A   Partly Cloudy
5:00 PM 85 °F - 74 °F 62% 29.96 in 16 mi SW 12.7 mph - -   Scattered Clouds
5:00 PM 84.2 °F 90.9 °F 73.4 °F 70% 29.95 in 6.2 mi SSW 12.7 mph - N/A   Partly Cloudy
5:30 PM 84.2 °F 90.9 °F 73.4 °F 70% 29.95 in 6.2 mi SW 12.7 mph - N/A   Partly Cloudy
6:00 PM 84 °F - 74 °F 65% 29.96 in - SSW 11.5 mph - -  
6:00 PM 84.2 °F 90.9 °F 73.4 °F 70% 29.95 in 6.2 mi SW 10.4 mph - N/A   Partly Cloudy
6:30 PM 82.4 °F 88.2 °F 73.4 °F 74% 29.95 in 6.2 mi SW 10.4 mph - N/A   Partly Cloudy
7:00 PM 83 °F - 74 °F 68% 29.96 in - SSW 9.2 mph - -  
7:00 PM 82.4 °F 88.2 °F 73.4 °F 74% 29.95 in 6.2 mi SW 8.1 mph - N/A   Partly Cloudy
7:30 PM 80.6 °F 85.4 °F 73.4 °F 79% 29.95 in 6.2 mi SW 6.9 mph - N/A   Partly Cloudy
8:00 PM 81 °F - 74 °F 73% 29.96 in 12 mi SW 5.8 mph - -   Scattered Clouds
8:00 PM 80.6 °F 85.4 °F 73.4 °F 79% 29.95 in 6.2 mi SW 4.6 mph - N/A   Partly Cloudy
8:30 PM 80.6 °F 85.4 °F 73.4 °F 79% 29.98 in 6.2 mi SW 4.6 mph - N/A   Partly Cloudy
9:00 PM 80 °F - 74 °F 78% 29.99 in - WSW 4.6 mph - -  
9:00 PM 80.6 °F 85.4 °F 73.4 °F 79% 29.98 in 6.2 mi SW 3.5 mph - N/A   Partly Cloudy
9:30 PM 78.8 °F - 73.4 °F 83% 29.98 in 6.2 mi SW 1.2 mph - N/A   Partly Cloudy
10:00 PM 78 °F - 74 °F 83% 29.99 in - Calm Calm - -  
10:00 PM 78.8 °F - 73.4 °F 83% 29.98 in 6.2 mi Calm Calm - N/A   Partly Cloudy
10:30 PM 78.8 °F - 73.4 °F 83% 29.98 in 6.2 mi SE 1.2 mph - N/A   Partly Cloudy
11:00 PM 76 °F - 72 °F 84% 29.99 in 11 mi Calm Calm - -   Scattered Clouds
11:00 PM 77.0 °F - 71.6 °F 83% 29.98 in 6.2 mi Calm Calm - N/A   Partly Cloudy
11:30 PM 75.2 °F - 71.6 °F 89% 29.98 in 6.2 mi East 2.3 mph - N/A   Partly Cloudy